• In Belarus
  • List of Countries
  • For 7 days
  • Water Temperature
  • Weather Map
  • Weather Widgets
  • user-avatar
    Login

    Hourly Weather Hadera

    Today, 29 May, Friday

    Time Temperature Precipitation Wind Pressure Humidity
    00:00 +14°C° 0 mm 6 mps 718 mmHg 74%
    01:00 +14°C° 0 mm 7 mps 717 mmHg 75%
    02:00 +14°C° 0 mm 7 mps 717 mmHg 73%
    03:00 +13°C° 0.2 mm 8 mps 717 mmHg 75%
    04:00 +13°C° 0.2 mm 8 mps 717 mmHg 77%
    05:00 +13°C° 0.2 mm 8 mps 717 mmHg 79%
    06:00 +15°C° 0 mm 8 mps 717 mmHg 74%
    07:00 +16°C° 0 mm 8 mps 718 mmHg 69%
    08:00 +17°C° 0 mm 8 mps 718 mmHg 65%
    09:00 +18°C° 0 mm 8 mps 718 mmHg 60%
    10:00 +18°C° 0 mm 8 mps 718 mmHg 55%
    11:00 +20°C° 0 mm 7 mps 719 mmHg 51%
    12:00 +20°C° 0 mm 8 mps 719 mmHg 50%
    13:00 +20°C° 0 mm 8 mps 719 mmHg 50%
    14:00 +20°C° 0 mm 8 mps 719 mmHg 50%
    15:00 +20°C° 0 mm 8 mps 719 mmHg 53%
    16:00 +18°C° 0 mm 8 mps 719 mmHg 56%
    17:00 +17°C° 0 mm 8 mps 718 mmHg 59%
    18:00 +17°C° 0 mm 7 mps 718 mmHg 66%
    19:00 +16°C° 0 mm 6 mps 718 mmHg 72%
    20:00 +15°C° 0 mm 5 mps 718 mmHg 78%
    21:00 +15°C° 0 mm 5 mps 718 mmHg 81%
    22:00 +14°C° 0 mm 4 mps 719 mmHg 83%
    23:00 +14°C° 0 mm 4 mps 719 mmHg 85%

    Tomorrow, 30 May, Saturday

    Time Temperature Precipitation Wind Pressure Humidity
    00:00 +14°C° 0 mm 4 mps 718 mmHg 84%
    01:00 +14°C° 0 mm 4 mps 718 mmHg 83%
    02:00 +14°C° 0 mm 3 mps 718 mmHg 82%
    03:00 +14°C° 0 mm 3 mps 718 mmHg 81%
    04:00 +14°C° 0 mm 3 mps 718 mmHg 80%
    05:00 +14°C° 0 mm 3 mps 718 mmHg 80%
    06:00 +16°C° 0 mm 3 mps 719 mmHg 72%
    07:00 +18°C° 0 mm 3 mps 719 mmHg 64%
    08:00 +19°C° 0 mm 3 mps 719 mmHg 56%
    09:00 +19°C° 0 mm 3 mps 719 mmHg 53%
    10:00 +20°C° 0 mm 4 mps 720 mmHg 50%
    11:00 +21°C° 0 mm 4 mps 720 mmHg 47%
    12:00 +21°C° 0 mm 5 mps 720 mmHg 48%
    13:00 +21°C° 0 mm 5 mps 720 mmHg 49%
    14:00 +21°C° 0 mm 6 mps 720 mmHg 50%
    15:00 +21°C° 0 mm 5 mps 720 mmHg 52%
    16:00 +20°C° 0 mm 5 mps 719 mmHg 53%
    17:00 +20°C° 0 mm 4 mps 719 mmHg 54%
    18:00 +18°C° 0 mm 4 mps 719 mmHg 62%
    19:00 +17°C° 0 mm 4 mps 719 mmHg 69%
    20:00 +16°C° 0 mm 3 mps 719 mmHg 76%
    21:00 +16°C° 0 mm 3 mps 719 mmHg 78%
    22:00 +14°C° 0 mm 3 mps 719 mmHg 79%
    23:00 +15°C° 0 mm 2 mps 719 mmHg 80%

    Day after tomorrow, 31 May, Sunday

    Time Temperature Precipitation Wind Pressure Humidity
    00:00 +14°C° 0 mm 2 mps 719 mmHg 80%
    01:00 +14°C° 0 mm 2 mps 719 mmHg 79%
    02:00 +14°C° 0 mm 1 mps 718 mmHg 78%
    03:00 +13°C° 0 mm 1 mps 718 mmHg 77%
    04:00 +13°C° 0 mm 1 mps 718 mmHg 77%
    05:00 +13°C° 0 mm 1 mps 718 mmHg 76%
    06:00 +15°C° 0 mm 1 mps 719 mmHg 65%
    07:00 +19°C° 0 mm 1 mps 719 mmHg 54%
    08:00 +21°C° 0 mm 1 mps 719 mmHg 43%
    09:00 +21°C° 0 mm 2 mps 719 mmHg 44%
    10:00 +21°C° 0 mm 3 mps 720 mmHg 44%
    11:00 +22°C° 0 mm 4 mps 720 mmHg 44%
    12:00 +22°C° 0 mm 4 mps 720 mmHg 45%
    13:00 +22°C° 0 mm 4 mps 719 mmHg 47%
    14:00 +22°C° 0 mm 5 mps 719 mmHg 48%
    15:00 +21°C° 0 mm 4 mps 718 mmHg 46%
    16:00 +21°C° 0 mm 4 mps 718 mmHg 45%
    17:00 +21°C° 0 mm 3 mps 717 mmHg 44%
    18:00 +19°C° 0 mm 3 mps 717 mmHg 52%
    19:00 +18°C° 0 mm 3 mps 717 mmHg 59%
    20:00 +17°C° 0 mm 3 mps 718 mmHg 66%
    21:00 +16°C° 0 mm 2 mps 717 mmHg 67%
    22:00 +16°C° 0 mm 2 mps 717 mmHg 67%
    23:00 +16°C° 0 mm 2 mps 717 mmHg 68%

    1 June, Monday

    Time Temperature Precipitation Wind Pressure Humidity
    00:00 +16°C° 0 mm 2 mps 717 mmHg 64%
    01:00 +16°C° 0 mm 2 mps 716 mmHg 60%
    02:00 +16°C° 0 mm 2 mps 716 mmHg 55%
    03:00 +16°C° 0 mm 1 mps 716 mmHg 56%
    04:00 +16°C° 0 mm 1 mps 716 mmHg 56%
    05:00 +16°C° 0 mm 1 mps 716 mmHg 56%
    06:00 +19°C° 0 mm 1 mps 716 mmHg 52%
    07:00 +20°C° 0 mm 2 mps 716 mmHg 48%
    08:00 +23°C° 0 mm 2 mps 717 mmHg 44%
    09:00 +24°C° 0 mm 2 mps 717 mmHg 43%
    10:00 +25°C° 0 mm 2 mps 717 mmHg 43%
    11:00 +25°C° 0 mm 2 mps 717 mmHg 42%
    12:00 +25°C° 0 mm 2 mps 717 mmHg 43%
    13:00 +25°C° 0 mm 2 mps 716 mmHg 45%
    14:00 +25°C° 0 mm 2 mps 716 mmHg 46%
    15:00 +24°C° 0 mm 2 mps 716 mmHg 47%
    16:00 +24°C° 0 mm 2 mps 715 mmHg 48%
    17:00 +23°C° 0 mm 1 mps 715 mmHg 49%
    18:00 +22°C° 0 mm 1 mps 715 mmHg 55%
    19:00 +20°C° 0 mm 1 mps 714 mmHg 61%
    20:00 +19°C° 0 mm 1 mps 714 mmHg 66%
    21:00 +19°C° 0 mm 1 mps 714 mmHg 67%
    22:00 +18°C° 0 mm 1 mps 714 mmHg 68%
    23:00 +18°C° 0 mm 1 mps 714 mmHg 69%

    2 June, Tuesday

    Time Temperature Precipitation Wind Pressure Humidity
    00:00 +17°C° 0 mm 2 mps 714 mmHg 69%
    01:00 +16°C° 0 mm 2 mps 713 mmHg 69%
    02:00 +16°C° 0 mm 2 mps 713 mmHg 69%
    03:00 +16°C° 0 mm 2 mps 713 mmHg 68%
    04:00 +16°C° 0 mm 2 mps 712 mmHg 67%
    05:00 +16°C° 0 mm 2 mps 712 mmHg 66%
    06:00 +18°C° 0 mm 2 mps 713 mmHg 59%
    07:00 +20°C° 0 mm 2 mps 713 mmHg 52%
    08:00 +23°C° 0 mm 2 mps 714 mmHg 45%
    09:00 +22°C° 0 mm 3 mps 714 mmHg 45%
    10:00 +24°C° 0 mm 3 mps 714 mmHg 46%
    11:00 +25°C° 0 mm 3 mps 714 mmHg 46%
    12:00 +25°C° 0 mm 4 mps 714 mmHg 46%
    13:00 +23°C° 0 mm 4 mps 714 mmHg 47%
    14:00 +23°C° 0 mm 4 mps 714 mmHg 47%
    15:00 +23°C° 0 mm 4 mps 713 mmHg 50%
    16:00 +22°C° 0 mm 4 mps 713 mmHg 52%
    17:00 +21°C° 0 mm 4 mps 713 mmHg 54%
    18:00 +20°C° 0 mm 4 mps 713 mmHg 62%
    19:00 +19°C° 0 mm 4 mps 713 mmHg 70%
    20:00 +18°C° 0 mm 4 mps 713 mmHg 78%
    21:00 +17°C° 0 mm 4 mps 713 mmHg 80%
    22:00 +16°C° 0 mm 3 mps 713 mmHg 82%
    23:00 +16°C° 0 mm 3 mps 713 mmHg 84%

    3 June, Wednesday

    Time Temperature Precipitation Wind Pressure Humidity
    00:00 +14°C° 0 mm 3 mps 713 mmHg 83%
    01:00 +14°C° 0 mm 3 mps 713 mmHg 83%
    02:00 +15°C° 0 mm 2 mps 712 mmHg 82%
    03:00 +15°C° 0 mm 2 mps 712 mmHg 81%
    04:00 +15°C° 0 mm 2 mps 712 mmHg 80%
    05:00 +14°C° 0 mm 1 mps 713 mmHg 79%
    06:00 +18°C° 0 mm 1 mps 713 mmHg 69%
    07:00 +19°C° 0 mm 2 mps 714 mmHg 58%
    08:00 +21°C° 0 mm 2 mps 714 mmHg 47%
    09:00 +23°C° 0 mm 2 mps 714 mmHg 45%
    10:00 +24°C° 0 mm 3 mps 715 mmHg 43%
    11:00 +24°C° 0 mm 3 mps 715 mmHg 41%
    12:00 +23°C° 0 mm 4 mps 715 mmHg 41%
    13:00 +25°C° 0 mm 4 mps 715 mmHg 40%
    14:00 +25°C° 0 mm 4 mps 715 mmHg 39%
    15:00 +23°C° 0 mm 4 mps 715 mmHg 43%
    16:00 +22°C° 0 mm 4 mps 715 mmHg 46%
    17:00 +22°C° 0 mm 3 mps 714 mmHg 49%
    18:00 +20°C° 0 mm 3 mps 714 mmHg 57%
    19:00 +19°C° 0 mm 2 mps 714 mmHg 66%
    20:00 +17°C° 0 mm 2 mps 714 mmHg 75%
    21:00 +17°C° 0 mm 2 mps 714 mmHg 70%
    22:00 +17°C° 0 mm 2 mps 714 mmHg 66%
    23:00 +18°C° 0 mm 1 mps 715 mmHg 61%
    Show more